Location: Cossonay
(46.5833°N, 6.4167°E)
Time: 21:51:11
(UTC+00:00)

CBERS-1 - Pass Details

Date: 10 October 2020
Orbit: 770 x 777 km, 98.6° (Epoch: 22 October)

Event Time Altitude Azimuth Distance (km) Brightness Sun altitude
Rises 03:19:08 0° 3° (N) 3,262 7.5 -25.6°
Reaches altitude 10° 03:21:54 10° 348° (NNW) 2,331 6.6 -25.2°
Enters shadow 03:23:35 17° 332° (NNW) 1,897 5.9 -24.9°
